Race Results for
Another Dam Race
Parker, AZ
(Event Information)
View By:
This is a non-competitive event
Stage Race on 03/25/2001

Note: Ranking points are NOT upgrade points. An explanation of ranking points can be found here.


Men - Junior - JR - 10-14

 Place NameCity, StateTime USAC #BibTeam
1Preston Moon   Usaf Academy, CO1:51:40 160412  958 -
2Wesley Seely   Huntington Beach, CA1:51:50 130052  961 TeamZeroWait
3Brian Janezic   Millersville, PA1:58:12 2  957 -

Men - Junior - JR - 15-18

 Place NameCity, StateTime USAC #BibTeam
1Jesse Anthony   Newbury Park, CA1:49:56 154883  951 SaturnDevelopmentCyclinBeverly
2Aaron Duenez   Lake Forest, CA1:51:39 149085  956 TeamZeroWait
3David (Ryan) Chan   Kingman, AZ1:52:52 145945  955 TeamZeroWait
4Patrick Yiu   1:58:18  967 -
5Travis Predmore   Murrieta, CA2:06:15 166263  960 -
6Eddo Weijer   Millersville, PA2:08:30 2  965 -

Men - Master - MR - 45-49

 Place NameCity, StateTime USAC #BibTeam
1Kalman Szkalak (1 - Cat2)   Capistrano Beach, CA3:09:49 54522  834 -
2Dirk Cowley   Salt Lake City, UT3:09:54 7974  809 -
3Chuck Trayer   Lake Havasu City, AZ3:12:44 61409  836 -
4Brad Bylynd   Laguna Niguel, CA3:12:44 48348  804 -
5Kenny Fuller   Corona Del Mar, CA3:12:49 46765  812 SimplyFit
6Anthony Pratt   Temple City, CA3:12:49 51338  827 -
7Rick Swanson   Corona, CA3:12:49 34753  833 -
8Eric Nelson   Arroyo Grande, CA3:13:10 108843  824 TeamTailwinds
9Thomas Gates   Franklin, TN3:14:19 45364  813 -
10Dale Luedtke   Oceanside, CA3:14:24 47262  817 -
11Howard Miller   Long Beach, CA3:14:34 49424  821 -
12Steve Truesdale   La Center, WA3:14:34 140938  837 -
13Jack Sorahan   Glendale, AZ3:14:34 107762  832 -
14Alan Johnson   Phoenix, AZ3:14:34 55012  816 -
15Larry McCormick   Prescott, AZ3:14:34 141009  819 -
16James Clune   Scottsdale, AZ3:14:34 51257  808 -
17Steven Rhoades   Bainbridge Island, WA3:14:34 89290  842 EagleHarbor
18Reed Moore   San Diego, CA3:14:50 61353  822 -
19David Anderson   Monument, CO3:15:18 101497  800 PAA-MerrillLynch
20Thomas Reilly   La Cresenta, CA3:15:39 155459  828 -
21Victor Rodriguez   Las Vegas, NV3:16:37 76566  830 BigDogsRacing
22Ricky Merideth   Las Vegas, NV3:17:09 138486  820 -
24Joey Valdivia   San Diego, CA3:17:54 126668  838 -
25Richard Roberson   Spring Valley, CA3:18:32 50765  829 -
26Edward Eades   Tucson, AZ3:34:54 120337  811 -
27Stephen Barnes   Riverside, CA3:34:54 100384  801 -
28Floyd Pool   Alpine, CA3:35:24 81375  826 -
29Joseph Mastro   Anaheim, CA3:39:46 151059  818 -

Men - Master - MR - 50-99

 Place NameCity, StateTime USAC #BibTeam
1John Rubcic   Hemet, CA2:22:20 48760  915 -
2James Miller   Oceanside, CA2:22:25 48244  912 CeloPacific
3James Kuhn   Flagstaff, AZ2:22:30 40971  908 -
4Robert Carter   Coronado, CA2:22:50 144111  903 -
5Hylton Murphy   Escondido, CA2:22:50 72995  913 -
6Edwin Webb   Fort Lauderdale, FL2:22:50 115390  922 TeamRPM
7Kurt Kamm   Malibu, CA2:22:50 59543  907 -
8Kirk Spindelman   Oceanside, CA2:22:50 45962  918 -
9Donald Williams   Los Angeles, CA2:22:50 38334  925 -
10Charlie Brown   Prescott, AZ2:22:50 92212  926 -
11Stephan Matthews   Palm Desert, CA2:22:50 22949  910 B&LBike
12G Michael Bishop   Fresno, CA2:22:50 170382  901 -
13Haroldo Camacho   Cathedral City, CA2:23:00 166699  927 P.A.A
14Robert Llamas   Montrose, CA2:23:18 162224  909 -
15Domenick Forte   Monrovia, CA2:23:54 45342  906 -
16Joseph Wells   Phoenix, AZ2:29:17 48252  923 -
17Richard Brown   Phoenix, AZ2:29:26 121736  902 -

Men - Pro/Cat 1

 Place NameCity, StateTime USAC #BibTeam
1Jonas Carney   Golden, CO4:21:40 45168  157 TeamPrimeAlliance.com
1Jason Waddell   Oklahoma City, OK4:21:45 110309  150 -
2Ryan Lane (1 - Pro)   Camarillo, CA4:21:45 69437  123 -
2Russell Hamby   Napa, CA4:21:45 55362  159 ParkCity
3Michael Tillman   Pacific Palisades, CA4:21:45 59904  146 -
3Victor Ayala   4:21:45 128496  100 -
4Ryan Barrett   Provo, UT4:22:16 2708  101 -
4Kenneth Toman   Santa Monica, CA4:21:45 52224  147 Schroeder/Incycle
5Gregg Medinilla   Santee, CA4:28:33 53667  130 -
5Brian Forbes   Mesa, AZ4:21:45 65615  114 -
6Michael Johnson   Mission Viejo, CA4:28:33 110745  119 -
6Craig Turner   Redlands, CA4:21:45 79177  148 CycleryUSA/Trek-VW
7Christopher McGovern   Nevada City, CA4:21:45 23487  129 -
8William Skimmer   Hampden, MA4:21:45 127937  161 SaturnCyclingTeam
9Eric Abrams   Tucson4:21:45 64902  139 WhiteMountain
10Jeff Prinz   Cleveland4:21:45 131478  140 -
11Charles Coyle   Boulder, CO4:21:45 102604  109 -
12Joshua Goodwin   Rancho Cucamonga, CA4:22:18 101136  116 -
13Kevin Nugent   Denver, CO4:22:26 47265  136 ExcelSportsBoulder
14Will Letendre Jr.   Etna, NH4:22:38 20980  125 -
15Will Black   Austin, TX4:23:01 58540  103 -
16James White   Santa Barbara, CA4:23:23 52363  153 -
17Benjamin Sharp   Colorado Springs, CO4:23:36 56190  145 -
18John DeLong   Blacksburg, VA4:24:10 61583  111 -
19Sean Watkins   Carlsbad, CA4:33:52 37362  152 -
20Warney Crosby   Dallas4:42:03 69378  110 -
21Ryan Sabga   Denver, CO4:54:01 98814  144 -
22Dean LaBerge   Napa, CA5:00:05 67041  122 -
23Nicklaus Kiernan   Euless, TX5:01:26 95282  121 -
24Michael Gibson   Golden, CO5:04:44 59548  115 -

Men - Cat 2

 Place NameCity, StateTime USAC #BibTeam
1Chad Hartley   Fox Point, WI4:14:33 126996  219 TeamCbike.com
2Ryan McKinney   Reston, VA4:14:55 97634  247 -
3Stanley Bunn   Carlsbad, CA4:15:10 115910  207 -
4Karl Bordine   Carlsbad, CA4:15:10 163315  205 -
5Harry Clark   Carmel, IN4:15:28 65323  209 -
6Ryan Nenninger   Iowa City, IA4:15:38 123851  251 HinckleySpringsRacingTTucson
7Leonard Tullous   Tucson, AZ4:15:38 36057  278 -
8Corky Kurtz   Flagstaff, AZ4:15:38 80186  237 CorkyKurtz-FairWheelerScottsdale
9Mike McMahon   Lake Forest, CA4:15:43 23731  248 -
10Eric Brownell   East Hartford, CT4:15:58 144563  206 HoneywellCycling
11Joe White   Summerland, CA4:15:58 37972  283 -
12Clayton Peck   Mesa, AZ4:15:58 27558  256 -
13Greg Hritzo   Apache Junction, AZ4:15:58 52188  227 -
14Nicholas Onate   San Diego, CA4:15:58 125567  254 -
15Jacob Rubelt   Tucson, AZ4:15:58 79833  268 -
16Ryan Leech   State College, PA4:15:58 20753  239 -
17Robert Harple   S Dartmouth, MA4:15:58 145522  218 -
18Waylon Helgeson   San Diego, CA4:15:58 125709  221 -
19Eric Small   Tucson, AZ4:15:58 41058  273 EclipseRacing
20Philip Martin   Chandler, AZ4:15:58 61578  244 -
21Michael Lange   Golden, CO4:15:58 102660  238 -
22Brad Reed   Charlotte, NC4:15:58 29370  260 -
23Erik Kuhlman   4:15:58  235 -
24Peter Lopinto   Boulder, CO4:15:58 99876  240 EclipseRacing
25Torsten Lyon   Golden, CO4:15:58 114781  242 -
26Joshua Anthony   Billerica, MA4:15:58 152973  201 -
27Jason Bache   Tucson, AZ4:15:58 99179  202 -
28Kevin Kirkwood   Scottsdale, AZ4:15:58 47269  232 -
29Adam Watts   Spring Lake, MI4:15:58 94669  282 -
30Eric Reber   Parker, CO4:15:58 77087  259 -
31Scott Raymond   Cypress, CA4:15:58 60314  258 -
32Guy Coffey   Littleton, CO4:15:58 42168  210 AmericanCyclingAssoc.
33Keith Henry   Lithonia, GA4:15:58 15856  222 Unattached
34Oliver Stiler-Cote   Kennebunkport, ME4:15:58 118540  275 -
35Paul Rogers   Madison, WI4:15:58 118407  266 -
36Craig Wohlschlaeger   Montecito , CA4:15:58 121452  285 -
37Jon Davis   Woodland Hills, CA4:15:58 114543  213 -
38Mark Wald-Hopkins   Los Alamos, NM4:15:58 109626  281 EclipseRacing
39Christopher Zukowski   Riverside, CA4:15:58 39558  286 InlandRadsport
40Terry Beenken   Mankato, MN4:15:58 3163  203 NatureValley-PennCycle
42Tony Olsen   San Diego, CA4:15:58 45754  253 -
43Stuart Hughes   4:15:58  228 -
44Billy Allen   Sandy, UT4:15:58 77303  200 -
45Michael Eberlein   Alexandria, MN4:15:58 147523  214 NatureValley-PennCycle
46Richard Craig   Las Vegas, NV4:15:58 54519  211 -
47Brian Keate   4:15:58  231 -
48Joseph Holmes   Bainbridge Island, WA4:16:12 16599  225 -
49Michael Stewart   San Diego, CA4:16:12 87489  274 -
50Dave Rimron   4:16:26  265 -
51David Reid   Mesa, AZ4:16:26 60513  261 Landis/Trek/VW
52Timothy Reinhart   Portland, OR4:16:26 64324  262 -
53Ophir Sephia   Grand Junction Co4:16:26 40420  271 -
54Mark Klingsberg   Fullerton, CA4:16:26 19393  233 -
55John Topoleski   Redlands, CA4:17:10 80002  277 CycleryUSA/Trek-VW
56Joseph Sinz   La Mirada, CA4:22:20 66552  272 -
57Julio Flores   Long Beach, CA4:22:53 40630  216 -
58Richard Thomas   Las Vegas, NV4:28:52 71023  276 -
59David Maxwell   Peoria, AZ4:29:56 87660  245 -
60Roger Rilling   Los Angeles, CA4:31:46 72073  264 -
61Michael McCalla   Santa Fe, NM4:42:43 23198  246 -
62Kevin Kruger   Carlsbad, CA4:44:58 19896  234 -

Men - Cat 3

 Place NameCity, StateTime USAC #BibTeam
1Eric Sternlicht   Orange, CA4:06:19 58144  370 -
2Mark Pearson   Calimesa, CA4:06:25 86969  359 -
3Nathan Dills   Mountain Home, ID4:06:30 9525  321 -
4Rick Bucher   Carefree, AZ4:06:30 5317  312 -
5Chris DeMarchi   Chino, CA4:06:30 9156  319 -
6Bill Wheeler   Phoenix, AZ4:06:40 176801  378 -
7Michael Jones   Harford, NY4:06:40 18224  342 -
8Dan Philbin   4:06:40  360 -
9Jon Stierwalt   Portland, OR4:06:40 73242  371 -
10Dan Distefano   Tucson, AZ4:06:40 89997  322 EclipseRacing
11Jason Henry   Fpo, AE4:06:40 165824  334 -
12David Straus   Phoenix, AZ4:06:40 34380  372 -
13Phillip Sublette   Tucson, AZ4:06:40 143571  373 -
14Mark Fosenburg   Phoenix, AZ4:06:40 143238  330 HoneywellCycling
15Roberto Martinez   Pittsburg, CA4:06:40 158189  352 -
16Erik Bender   San Diego, CA4:06:40 67077  304 -
17Grant Berry   Durango, CO4:06:40 148636  305 -
18Scot Klingmann   4:06:40 169575  347 TeamRevolutionRacing
19Charles Royalty   Tempe, AZ4:06:40 153317  362 HoneywellCycling
20Jeffrey Dresser   Newport Beach, CA4:06:40 57782  323 -
21Joseph Weickgenant   Oceanside, CA4:06:40 60998  377 -
22Robert Riley   Casa Grande, AZ4:06:40 89831  379 HoneywellCycling
23Andrew Karapelou   Phoenix, AZ4:06:40 142280  343 -
24Nicholas Traggis   Boulder, CO4:06:40 108501  374 -
25Jeff Hall   Irvine, CA4:06:40 155149  333 -
26Lorien Anderson   Tucson, AZ4:06:40 81677  301 EclipseRacing
27Sean Cahill   4:06:40 81499  313 -
28Carlos (Matias) Mendigochea   Inglewood, CA4:06:40 64908  353 -
29Paul Hewes   San Francisco, CA4:06:40 167320  336 -
30Brad Bochart   Tempe, AZ4:06:40 176618  309 -
31Jason Karew   Cincinnati, OH4:06:40 133936  344 -
32Gilbert Correa   La Verne, CA4:06:40 41138  317 -
33Jeffrey Hoppert   Tucson, AZ4:06:40 109348  340 EclipseRacing
34Matt Forquer   Anaheim, CA4:06:40 142989  329 Schroeder/Incycle
35Paul Gravesande   Highland, CA4:06:40 141407  332 -
36David Nocera   Apple Valley, CA4:06:40 57701  357 -
37Guido Quezada   Long Beach, CA4:06:53 106988  361 -
38Brock Boring   Scottsdale, AZ4:06:53 134433  311 -
39Bryan Krouse   Santa Barbara, CA4:06:57 102556  348 -
40Ron Hodge   Banning, CA4:07:15 91774  338 -
41Matt Shriver   Durango, CO4:07:25 110703  368 -
42Grant Parris   Henderson, NV4:07:28 140858  358 -
43Craig Goodin   Temecula, CA4:08:22 155648  331 -
44Abel Sanchez   Redlands, CA4:09:13 147875  364 7UpCitrusValleyVelo
45Gerald Biehle   Phoenix, AZ4:10:37 51386  306 -
46Kirk Blalock   Orange, CA4:17:29 62174  308 -
47Glenn Ford   San Clemente, CA4:22:05 94055  328 -
48Gregory Kilroy   Phoenix, AZ4:28:01 19113  345 -
49Shaun Albin   Lake Oswego, OR4:28:01 1294  300 -
50Nicholaus Schreiber   Tucson, AZ4:33:31 93359  366 -
51Erik Mills   Santa Barbara, CA4:34:12 107789  354 -
52Jason Elfenbein   New York, NY4:34:12 167332  325 -
53Jeff Dillon   Folsom, CA4:37:43 9524  320 FlagstaffVelo
54Scott Manning   Colton, CA4:40:16 72407  351 CycleryUSA/Trek-VW
55William Egan   Chandler, AZ4:48:02 72149  324 WhiteMountainRoadClub

Men - Cat 4

 Place NameCity, StateTime USAC #BibTeam
1Michael Sterr   Anaheim, CA3:06:37 175012  455 TeamVelocity
2Babak Saraf   Los Angeles, CA3:06:42 71538  451 -
3Jeremie Texier   3:06:47  457 -
4Shane Broussard   Las Vegas, NV3:06:52 97060  405 -
5Darik Russell   Chandler, AZ3:06:57 142123  447 -
6Mark Comaniuk   Surprise, AZ3:06:57 21448  412 -
7Bryce Weber   Phoenix, AZ3:06:57 177740  462 -
8Joshua Smith   Eugene, OR3:06:57 167468  453 -
9Sean Regan   Encinitas, CA3:06:57 100193  444 -
10Clemon Gavin   Spring Valley, CA3:06:57 156545  420 -
11Chris Sproul   Camarillo, CA3:06:57 33683  454 -
12Scott Haines   Lakewood, CO3:06:57 110568  422 -
13Ryan Josh   Chandler, AZ3:06:57 167671  470 -
14James Salazar   San Diego, CA3:06:57 175390  449 -
15Lenny Ledbetter   Norwalk, CA3:06:57 174236  429 -
16Matthew Holecko   Scottsdale, AZ3:06:57 148285  425 ArizonaStateCycling
17Tedd Jacobson   Pewaukee, WI3:06:57 161238  426 -
18Kenneth (Kenny) Stewart   Trabuco Canyon, CA3:06:57 141238  456 -
19Trevor Krueger   Durango, CO3:06:57 156437  428 -
20Ken Gallegos   Las Vegas, NV3:06:57 166014  419 -
21Mark Venti   Mesa, AZ3:06:57 149570  459 Procon-BikeShowcase
22Nicholas Trusty   Millersville, PA3:06:57 2  469 -
23Tobias Panek   Poway, CA3:06:57 166826  439 So.BayWheelman
24Paul Tiangco   Long Beach, CA3:06:57 112986  458 -
25Bob Krauth   Redondo Beach, CA3:06:57 115448  427 -
26Rene Lucas   Phoenix, AZ3:06:57 57849  431 -
27Victor Matloff   Newport Beach, CA3:06:57 166813  434 -
28Leland Rusk   Austin, TX3:06:57 113100  446 -
29Joseph Wenninger   Laguna Niguel, CA3:06:57 151221  464 -
30Richard Albrow   Bend, OR3:06:57 159007  401 TeamB&L
31Gregory Clarke   Santa Ana, CA3:07:34 82488  410 -
32David McHugh   Tempe, AZ3:07:59 106305  435 -
33Troy Raffelson   El Cajon, CA3:08:04 166260  443 -
34Ken Burns   Upland, CA3:08:26 95649  408 Schroeder/Incycle
35Steven Hansen   Lakewood, CA3:08:26 152733  424 -
36Kevin Brown   Tempe, AZ3:08:26 5107  406 -
37Todd Wurtz   Jacksonville, FL3:09:21 88095  467 -
38Ed Burnett   Anaheim, CA3:09:32 99934  407 -
39Floyd Smith   Auburn, ME3:09:32 118974  452 -
40Anthony Piazza   Mesa, AZ3:09:45 108192  441 -
42Jonathan Whitney   Lafayette, CO3:11:12 61566  465 TeamProCyclery
43Kris Wells   La Mesa, CA3:11:29 744  463 -
44Mark Agcaoili   Denver, CO3:11:29 148727  400 -
45Mark Cato   Redding, CA3:12:00 166954  409 -
46Darrell McPherren   Chula Vista, CA3:17:39 116628  436 SanDiegoCycloVets
47Craig Hamilton   Phoenix, AZ3:17:43 166357  423 -
48Eric Cruz   Mesa, AZ3:19:49 111615  415 -
49Richard Doan   Chino, CA3:23:00 9630  416 -
50L Todd Salzman   Fullerton, CA3:23:00 126344  450 -
51Timothy Madden   Berthoud, CO3:26:11 50211  432 -
52Marcus Moffett   Spring Hill, FL3:31:11 122913  437 -
53Eric Reiser   Yucaipa, CA3:31:59 166364  445 -
54Jay Prasuhn   3:33:17  442 -
55Marcos Flores   Kellogg Idaho3:44:30 162710  418 -

Men - Cat 5

 Place NameCity, StateTime USAC #BibTeam
1Brent Garrigus   Encinitas, CA2:23:51 177187  509 -
2David Mitzner   2:24:11  527 InlandSunsetVelo
3Andy Brown   Solana Beach, CA2:24:11 178391  503 -
4Jason Mauer   Portland, OR2:24:16 132433  545 -
5Brian Manning   Las Vegas, NV2:24:16 121380  522 -
6Barry Lasko   Henderson, NV2:24:21 171774  549 LasVegasProCyclery
7Michele Brocato   Lafayette, CA2:24:21 177046  501 -
8Brian Murphy   Temecula, CA2:24:21 139152  529 -
9Eric Broussard   Las Vegas, NV2:24:21 165830  502 -
10Matt Weaber   Encinitas, CA2:24:21 167410  541 -
11Chris Poole   Phoenix, AZ2:24:21 120794  531 -
12Walt Wehner   Boulder, CO2:24:21 162165  542 -
13Jeremy Murdock   Vacaville, CA2:24:21 174324  528 -
14Jedediah Hazen   Bakersfield, CA2:24:21 177377  511 -
15Steve Dunn   Millersville, PA2:24:21 2  504 ProCyclery
16Fred Goll   Henderson, NV2:24:21 177016  510 -
17Ken Johnson   Temecula, CA2:24:21 172715  518 -
18Dave Herbst   Carlsbad, CA2:24:21 178583  515 -
19Stan Freeman   Las Vegas, NV2:24:21 176749  508 -
21David Lipinski   Tempe, AZ2:24:21 177186  520 -
23Jason (Jake) Hennen   Scottsdale, AZ2:24:34 176991  514 -
24Patrick McIntosh   Peoria, AZ2:25:09 126531  524 -
25Anthony Shute   Spring Valley, CA2:25:09 177221  534 -
26Mark-Devin Verdejo   Chandler, AZ2:25:09 175068  540 -
27Erich Ewy   Chandler, AZ2:25:09 93658  506 unattached
28Kelly Hearn   Covina, CA2:25:09 142844  512 -
29Joseph Hudon   Temecula, CA2:25:52 177010  516 -
30Eric Brandt   Gilbert, AZ2:26:10 4634  500 -
32Eric Stephen   Simi Valley, CA2:39:30 176771  537 -
33Choosak Wonggaew   Tustin, CA2:47:16 165148  543 -
34Kevin Miller   Mesa, AZ2:49:11 178097  526 -

Women - Junior - JR - 10-14

 Place NameCity, StateTime USAC #BibTeam
1Tori Wilson   Lakeside, CA2:19:27 164321  966 -

Women - Junior - JR - 15-18

 Place NameCity, StateTime USAC #BibTeam
1Melissa Bishop   Oceanside, CA2:02:14 175011  953 -

Women - Pro/Cat 1/2

 Place NameCity, StateTime USAC #BibTeam
1Ashley Kimmet (1 - Pro)   Allentown, PA3:43:04 102427  618 -
1Cheryl Binney   San Francisco, CA3:36:14 73494  600 -
1Rebecca Cooke   Easthampton, MA3:36:09 78869  604 Landis/Trek/VW
2Deborah Durand   San Diego, CA3:43:04 48599  606 -
2Colleen Kelly   Carlsbad, CA3:36:14 18816  615 -
3Aileen Loe   Arroyo Grande, CA3:43:04 92993  621 JaneCosmetics
3Pamela Heilgeist   W Covina, CA3:42:59 114453  639 ParamountRacing
4Patricia Choo   San Diego, CA3:43:04 140929  603 -
5Jennifer Gabet   Goleta, CA3:43:04 81808  608 -
6Amy Hutner   Los Angeles, CA3:43:04 50234  611 LaGrangeBristolFarms
7Lauri Lewis   San Diego, CA3:43:04 21090  620 -
8Jennifer Buntz   Albuquerque, NM3:43:04 46309  602 Landis/Trek/VW
9Melissa Lemke   Phoenix, AZ3:54:33 68555  619 Landis/Trek/VW

Women - Cat 4

 Place NameCity, StateTime USAC #BibTeam
1Laura Perdew   Irvine, CA2:20:56 73658  679 SimplyFit
2Angela VanDyke   Vista, CA2:20:56 124226  688 -
3Joanna Bieri   Flagstaff, AZ2:21:01 177990  652 -
4Kathleen Hawthorne   Carlsbad, CA2:21:06 158160  670 -
5Marisa Russell   2:21:06  680 -
6Dolly Ginter   2:21:11  667 -
7Jana Minka   La Mesa, CA2:21:11 154745  678 -
8Vicki Young   Las Vegas, NV2:21:11 172989  690 -
9Alexandra Tabata   Riverside, CA2:21:11 171362  685 TeamVeloCity
10Lynn Albrow   Bend, OR2:21:11 159008  651 TeamB&L
11Kristin Doerschlag   Boise, ID2:21:11 176619  660 Schroeder/Incycle
12Jennifer Kanipe   Tucson, AZ2:22:16 129388  671 -
13Helenlisle King   Prescott Valley, AZ2:25:39 54582  672 -
14Marcee Zari   2:25:46  691 -
15Janet Church   Anaheim, CA2:26:39 166527  655 -
16Bernadette Brake   Irvine, CA2:28:15 167109  653 -
17Linda Skinker   Tucson, AZ2:33:34 72249  683 -
18Toni Tagami   Riverside, CA2:33:44 169863  686 InlandRadsport
19Anna Scherzer   2:34:00  695 -
20Lori Whynot   Arlington, MA2:34:15 142768  692 NEBCCycleloft/EMC
21Heather Krauss   Millersville, PA2:34:37 2  673 -
22Katharine Hardy   2:36:21  669 -
23Karen Gee   Highland, CA2:37:39 126061  666 -
26Karen Mark   2:46:38  677 DesertFoxes
27Amy Dean   Mesa, AZ2:47:35 161983  659 MountainVelo/SuperGo
28Jean Lansing   Huntsville, AL2:54:21 136552  675 So.BayWheelmen
29Colleen Corey   2:57:14  657 -
30Kathy Lehman   Las Vegas, NV3:05:29 177575  676 -
31Zoe Cohen   3:05:29 42768  656 -

Report missing or incorrect license numbers

Volkswagen
USACDFSierra NevadaBonk BreakerSpyShimano
UCI USA Cycling is the official governing body for all disciplines of competitive cycling in the United States. The 501c3, membership-based organization aims both to achieve sustained success in international cycling competition and to grow competitive cycling in America while delivering an exceptional customer experience.
View Children's Online Privacy Protection Policy
US Olympic Committee